(114833) = 2003 OZ22

Discovered at Socorro on 2003-07-30 by LINEAR.

Orbit

Orbit type: Main Belt

Note: WebGL enabled browser required.

epoch2023-09-13.0
epoch JD2460200.5
perihelion date2020-11-30.66527
perihelion JD2459184.16527
argument of perihelion (°)19.34777
ascending node (°)332.35451
inclination (°)4.64106
eccentricity0.1336482
perihelion distance (AU)1.9785128
Tisserand w.r.t. Jupiter3.6
ΔV w.r.t. Earth (km/sec)8.8
semimajor axis (AU)2.2837292
mean anomaly (°)290.25099
mean daily motion (°/day)0.28558600
aphelion distance (AU)2.589
period (years)3.45
P-vector [x]0.98902749
P-vector [y]-0.14395404
P-vector [z]-0.03319411
Q-vector [x]0.14288138
Q-vector [y]0.87499534
Q-vector [z]0.46256683
absolute magnitude16.42
phase slope0.15
uncertainty0
referenceMPEC 2024-A26
observations used930
oppositions17
arc length (days)9780
first opposition used1996
last opposition used2023
residual rms (arc-secs)0.68
perturbers coarse indicatorM-v
perturbers precise indicator003Ek
first observation date used1996-09-08.0
last observation date used2023-06-19.0
computer nameMPCLINUX
JD of orbit computation2456494.361981
perihelion JD uncertainty (days)6.1114E-05
argument of perihelion uncertainty (°)5.8166E-05
ascending node uncertainty (°)5.5841E-05
inclination uncertainty (°)6.4022E-06
eccentricity uncertainty 6.4120E-08
perihelion distance uncertainty (AU)1.4848E-07
Minimum Orbit Intersection Distances (in AU)
for orbit epoch: 2460200.5, reference: E2024-A12
Mercury1.59682
Venus1.25545
Earth0.97251
Mars0.59803
Jupiter2.8058
Saturn6.66414
Uranus15.8607
Neptune27.7559

Observations

946 total observations over interval: 1996 09 08.52745 – 2023 06 19.314215
These data are available for download (format description).

Date (UT) J2000 RA J2000 Dec Magn Location Ref
1996 09 08.52745 22 38 55.24 -06 47 57.1 18.8 V 566 – Haleakala-NEAT/GEODSS MPS 84065
1996 09 08.53585 22 38 54.72 -06 47 58.3 18.5 V 566 – Haleakala-NEAT/GEODSS MPS 84065
1996 09 08.54613 22 38 54.13 -06 47 59.4 18.8 V 566 – Haleakala-NEAT/GEODSS MPS 84065
2000 12 20.28273 05 37 21.38 +30 48 54.7 18.7   704 – Lincoln Laboratory ETS, New Mexico MPS 84065
2000 12 20.29810 05 37 20.10 +30 48 52.7 19.3   704 – Lincoln Laboratory ETS, New Mexico MPS 84065
2000 12 20.31336 05 37 18.92 +30 48 50.6 19.4   704 – Lincoln Laboratory ETS, New Mexico MPS 84065
2000 12 20.32838 05 37 17.76 +30 48 48.5 19.0   704 – Lincoln Laboratory ETS, New Mexico MPS 84065
2000 12 20.34343 05 37 16.60 +30 48 46.2 19.2   704 – Lincoln Laboratory ETS, New Mexico MPS 84065
2002 04 04.37768 13 05 26.13 -12 50 00.1 19.8   644 – Palomar Mountain/NEAT MPS 84065
2002 04 04.38802 13 05 25.47 -12 49 57.4 19.4   644 – Palomar Mountain/NEAT MPS 84065
2002 04 04.39855 13 05 24.81 -12 49 54.7 20.0   644 – Palomar Mountain/NEAT MPS 84065
2002 04 09.30434 13 00 23.12 -12 27 15.8 18.9   704 – Lincoln Laboratory ETS, New Mexico MPS 84065
2002 04 09.31602 13 00 22.32 -12 27 11.9 19.6   704 – Lincoln Laboratory ETS, New Mexico MPS 84065
2002 04 09.32781 13 00 21.60 -12 27 10.2 19.6   704 – Lincoln Laboratory ETS, New Mexico MPS 84065
2002 04 09.35117 13 00 20.14 -12 27 02.7 18.9   704 – Lincoln Laboratory ETS, New Mexico MPS 84065
2002 04 15.23902 12 54 21.70 -11 57 35.5 19.4   644 – Palomar Mountain/NEAT MPS 84065
2002 04 15.26161 12 54 20.30 -11 57 28.4 19.6   644 – Palomar Mountain/NEAT MPS 84065
2002 04 15.30001 12 54 17.95 -11 57 17.0 19.9   644 – Palomar Mountain/NEAT MPS 84065
2003 07 30.39882 00 23 49.96 +03 40 27.3 19.9   704 – Lincoln Laboratory ETS, New Mexico MPS 82726
2003 07 30.41006 00 23 50.33 +03 40 30.7 20.3   704 – Lincoln Laboratory ETS, New Mexico MPS 82726
2003 07 30.42098 00 23 50.47 +03 40 34.9 20.3   704 – Lincoln Laboratory ETS, New Mexico MPS 82726
2003 07 30.43178 00 23 50.84 +03 40 40.6 19.6   704 – Lincoln Laboratory ETS, New Mexico MPS 82726
2003 08 04.34156 00 25 40.62 +04 10 23.6 19.5   704 – Lincoln Laboratory ETS, New Mexico MPS 82726
2003 08 04.35198 00 25 40.77 +04 10 27.2 19.8   704 – Lincoln Laboratory ETS, New Mexico MPS 82726
2003 08 04.36259 00 25 40.95 +04 10 31.1 19.8   704 – Lincoln Laboratory ETS, New Mexico MPS 82726
2003 08 04.37300 00 25 41.08 +04 10 35.0 19.7   704 – Lincoln Laboratory ETS, New Mexico MPS 82727
2003 08 04.38349 00 25 41.26 +04 10 38.4 19.6   704 – Lincoln Laboratory ETS, New Mexico MPS 82727
2003 08 22.31291 00 25 46.67 +05 25 03.3 18.6   704 – Lincoln Laboratory ETS, New Mexico MPS 83102
2003 08 22.32545 00 25 46.36 +05 25 05.0 19.5   704 – Lincoln Laboratory ETS, New Mexico MPS 83102
2003 08 22.33810 00 25 46.03 +05 25 07.1 19.5   704 – Lincoln Laboratory ETS, New Mexico MPS 83102
2003 08 22.35056 00 25 45.75 +05 25 07.5 19.1   704 – Lincoln Laboratory ETS, New Mexico MPS 83102
2003 08 22.36325 00 25 45.55 +05 25 11.0 18.9   704 – Lincoln Laboratory ETS, New Mexico MPS 83102
2003 08 28.31795 00 23 23.46 +05 36 36.3 19.0   704 – Lincoln Laboratory ETS, New Mexico MPS 83425
2003 08 28.33190 00 23 23.08 +05 36 37.1 19.6   704 – Lincoln Laboratory ETS, New Mexico MPS 83425
2003 08 28.34444 00 23 22.67 +05 36 37.7 19.6   704 – Lincoln Laboratory ETS, New Mexico MPS 83425
2003 08 28.35668 00 23 22.20 +05 36 38.4 19.6   704 – Lincoln Laboratory ETS, New Mexico MPS 83425
2003 08 28.36955 00 23 21.78 +05 36 39.4 19.4   704 – Lincoln Laboratory ETS, New Mexico MPS 83425
2003 09 02.01846 00 20 43.04 +05 40 36.5 18.3 R 636 – Essen MPS 84065
2003 09 02.02237 00 20 42.88 +05 40 37.6 18.3 R 636 – Essen MPS 84065
2003 09 02.02628 00 20 42.73 +05 40 38.0 18.4 R 636 – Essen MPS 84065
2003 09 02.03497 00 20 42.37 +05 40 37.2 18.5 R 636 – Essen MPS 84065
2003 09 03.37002 00 19 49.57 +05 41 01.1 18.2   704 – Lincoln Laboratory ETS, New Mexico MPS 84065
2003 09 03.38179 00 19 49.10 +05 41 01.6 18.9   704 – Lincoln Laboratory ETS, New Mexico MPS 84065
2003 09 03.39356 00 19 48.56 +05 41 01.3 18.9   704 – Lincoln Laboratory ETS, New Mexico MPS 84065
2003 09 03.40538 00 19 48.03 +05 41 01.7 18.6   704 – Lincoln Laboratory ETS, New Mexico MPS 84065
2003 09 08.29570 00 16 11.17 +05 39 31.8 18.3 R 699 – Lowell Observatory-LONEOS MPS 84548
2003 09 08.30893 00 16 10.42 +05 39 29.2   699 – Lowell Observatory-LONEOS MPS 84548
2003 09 08.32217 00 16 09.82 +05 39 28.4   699 – Lowell Observatory-LONEOS MPS 84548
2003 09 08.33534 00 16 09.08 +05 39 29.9   699 – Lowell Observatory-LONEOS MPS 84548
2003 09 09.47782 00 15 13.27 +05 38 31.2 19.2   608 – Haleakala-AMOS MPS 84548
2003 09 09.48826 00 15 12.71 +05 38 30.8 19.6   608 – Haleakala-AMOS MPS 84548
2003 09 09.49895 00 15 12.14 +05 38 30.2 19.5   608 – Haleakala-AMOS MPS 84548
2003 09 17.24366 00 08 16.33 +05 26 14.3 18.1   644 – Palomar Mountain/NEAT MPS 86232
2003 09 17.30679 00 08 12.54 +05 26 06.3 17.9   644 – Palomar Mountain/NEAT MPS 86232
2003 09 17.37463 00 08 08.45 +05 25 57.4 17.9   644 – Palomar Mountain/NEAT MPS 86232
2003 09 19.29731 00 06 17.57 +05 21 33.0 18.5   704 – Lincoln Laboratory ETS, New Mexico MPS 85239
2003 09 19.30965 00 06 16.81 +05 21 31.1 19.1   704 – Lincoln Laboratory ETS, New Mexico MPS 85239
2003 09 19.32195 00 06 16.10 +05 21 30.1 18.9   704 – Lincoln Laboratory ETS, New Mexico MPS 85239
2003 09 19.33401 00 06 15.33 +05 21 27.0 19.3   704 – Lincoln Laboratory ETS, New Mexico MPS 85239
2003 09 19.34629 00 06 14.53 +05 21 25.5 18.8   704 – Lincoln Laboratory ETS, New Mexico MPS 85239
2003 09 21.50806 00 04 07.63 +05 15 57.6 18.7   608 – Haleakala-AMOS MPS 85239
2003 09 21.51890 00 04 06.95 +05 15 55.8 18.6   608 – Haleakala-AMOS MPS 85239
2003 09 21.52954 00 04 06.31 +05 15 53.8 18.8   608 – Haleakala-AMOS MPS 85239
2003 09 27.23136 23 58 30.01 +04 59 11.5 18.1   704 – Lincoln Laboratory ETS, New Mexico MPS 86232
2003 09 27.24429 23 58 29.23 +04 59 09.3 18.4   704 – Lincoln Laboratory ETS, New Mexico MPS 86232
2003 09 27.25736 23 58 28.40 +04 59 07.0 18.2   704 – Lincoln Laboratory ETS, New Mexico MPS 86232
2003 09 27.27043 23 58 27.59 +04 59 04.4 18.3   704 – Lincoln Laboratory ETS, New Mexico MPS 86232
2003 09 27.28319 23 58 26.83 +04 59 01.6 18.7   704 – Lincoln Laboratory ETS, New Mexico MPS 86232
2003 09 30.16275 23 55 40.51 +04 49 49.9 17.8 R 699 – Lowell Observatory-LONEOS MPS 86930
2003 09 30.18130 23 55 39.41 +04 49 46.2   699 – Lowell Observatory-LONEOS MPS 86930
2003 09 30.19958 23 55 38.36 +04 49 42.7   699 – Lowell Observatory-LONEOS MPS 86930
2003 09 30.21800 23 55 37.23 +04 49 39.3   699 – Lowell Observatory-LONEOS MPS 86930
2003 10 12.33305 23 45 21.48 +04 11 01.5 18.4 R 699 – Lowell Observatory-LONEOS MPS 87312
2003 10 12.34308 23 45 20.93 +04 11 01.2   699 – Lowell Observatory-LONEOS MPS 87312
2003 10 12.35305 23 45 20.28 +04 11 00.7   699 – Lowell Observatory-LONEOS MPS 87312
2003 10 12.36306 23 45 19.80 +04 10 59.9   699 – Lowell Observatory-LONEOS MPS 87312
2003 10 15.15700 23 43 27.50 +04 03 06.5 18.3 R 699 – Lowell Observatory-LONEOS MPS 88044
2003 10 15.17357 23 43 26.88 +04 03 03.9   699 – Lowell Observatory-LONEOS MPS 88044
2003 10 15.19020 23 43 26.19 +04 03 01.6   699 – Lowell Observatory-LONEOS MPS 88044
2003 10 15.20677 23 43 25.54 +04 02 58.8   699 – Lowell Observatory-LONEOS MPS 88044
2003 10 16.16334 23 42 50.13 +04 00 27.3 18.7 V 291 – LPL/Spacewatch II MPS 87312
2003 10 16.18698 23 42 49.20 +04 00 23.7 18.8 V 291 – LPL/Spacewatch II MPS 87312
2003 10 16.21060 23 42 48.26 +04 00 19.9 18.7 V 291 – LPL/Spacewatch II MPS 87312
2003 10 20.20468 23 40 38.43 +03 50 49.6 18.8   704 – Lincoln Laboratory ETS, New Mexico MPS 88044
2003 10 20.21619 23 40 38.04 +03 50 46.6 20.4   704 – Lincoln Laboratory ETS, New Mexico MPS 88044
2003 10 20.22799 23 40 37.65 +03 50 45.5 20.1   704 – Lincoln Laboratory ETS, New Mexico MPS 88044
2003 10 20.23979 23 40 37.27 +03 50 44.5 19.2   704 – Lincoln Laboratory ETS, New Mexico MPS 88044
2003 10 20.25155 23 40 36.92 +03 50 42.9 19.0   704 – Lincoln Laboratory ETS, New Mexico MPS 88044
2003 11 20.14051 23 42 05.83 +03 57 59.6 19.9   704 – Lincoln Laboratory ETS, New Mexico MPS 90974
